Hourly Weather Roundup
Issued by NWS Central Illinois

Home | Current Version | Previous Version | Text Only | Print | Product List | Glossary On
Versions: 1 2 3 4 5 6 7 8 9 10 11 12 13 14 15 16 17 18 19 20 21 22 23 24 25 26 27 28 29 30 31 32 33 34 35 36 37 38 39 40 41 42 43 44 45 46 47 48 49 50
000
NZUS43 KILX 280110
HWRILX

AREA WEATHER ROUNDUP
NATIONAL WEATHER SERVICE, LINCOLN IL
800 PM CDT MON JUL 27 2015


CITY           SKY/WX    TMP DP  RH WIND       PRES   REMARKS
BLOOMINGTON    MOCLDY    81  74  79 NE5       29.99R HX  86
CHAMPAIGN      MOCLDY    78  73  84 CALM      29.97R HX  81
DANVILLE       MOCLDY    78  74  85 NE5       29.93S HX  81
DECATUR        MOCLDY    80  75  84 NE3       29.97R HX  85
EFFINGHAM      MOCLDY    83  73  72 CALM      29.95R HX  89
FLORA          PTCLDY    83  78  84 CALM      29.94R HX  93
GALESBURG      CLOUDY    77  73  89 CALM      29.98R
JACKSONVILLE   CLOUDY    82  79  88 N3        29.97R HX  92
LACON          CLOUDY    79  74  85 CALM      29.96R HX  83
LAWRENCEVILLE  PTCLDY    84  78  82 CALM      29.93R HX  95
LITCHFIELD     MOCLDY    83  74  75 N6        29.95R HX  89
$$


CITY           SKY/WX    TMP DP  RH WIND       PRES   REMARKS
LINCOLN        CLOUDY    81  74  80 CALM      29.96R HX  86
MACOMB         CLOUDY    77  75  93 CALM      30.00R FOG
MATTOON        PTCLDY    80  73  79 NE5       29.95R HX  84
MT CARMEL AP   MOCLDY    84  77  79 CALM      29.93R HX  94
OLNEY-NOBLE AP MOCLDY    82  77  83 S3        29.93R HX  91
PARIS          PTCLDY    79  75  89 CALM      29.96R HX  82
PEORIA         CLOUDY    82  73  74 CALM      29.98R HX  87
PONTIAC        CLOUDY    82  75  81 E5        29.98R HX  88
RANTOUL        PTCLDY    83  75  77 CALM      29.96R HX  90
ROBINSON       PTCLDY    81  78  90 CALM      29.94R HX  88
SPRINGFIELD    CLOUDY    84  75  74 CALM      29.97R HX  92
TAYLORVILLE    MOCLDY    81  75  83 NE3       29.96R HX  86
$$

...REGIONAL REPORTS...


CITY           SKY/WX    TMP DP  RH WIND       PRES   REMARKS
CHICAGO O`HARE CLOUDY    79  64  60 NE10      29.99R HX  81
KANKAKEE       MOCLDY    78  69  74 NE5       29.99R HX  80
MOLINE         CLOUDY    80  74  81 S3        29.95F HX  85
MOUNT STERLING NOT AVBL
MOUNT VERNON   CLOUDY    79  72  78 CALM      29.95R HX  82
PITTSFIELD     TSTM      73  70  91 NW9G23    30.05R
QUINCY         LGT RAIN  72  70  93 NW5       29.98F
ROCKFORD       CLOUDY    80  62  54 E9        29.99S HX  81
$$


CITY           SKY/WX    TMP DP  RH WIND       PRES   REMARKS
BURLINGTON     LGT RAIN  77  76  96 S3        29.98S FOG
CEDAR RAPIDS   CLOUDY    78  75  90 SE6       29.93F HX  81
DES MOINES     MOCLDY    75  67  76 S9        29.89F
KIRKSVILLE     CLOUDY    77  70  79 E9        29.95F
OTTUMWA        CLOUDY    75  73  93 SE9       29.90F
ST LOUIS       CLOUDY    82  72  71 CALM      29.93S HX  87
$$


CITY           SKY/WX    TMP DP  RH WIND       PRES   REMARKS
TERRE HAUTE    PTCLDY    80  74  81 CALM      29.94R HX  85
EVANSVILLE     MOCLDY    85  75  72 W3        29.93R HX  93
INDIANAPOLIS   MOCLDY    80  72  76 E5        29.95R HX  84
LAFAYETTE      MOCLDY    79  69  71 NE8       29.96R HX  81
MADISON        MOCLDY    80  65  59 SE7       29.98R HX  82
MILWAUKEE      MOCLDY    74  66  76 NE5       30.01R
$$





USA.gov is the U.S. government's official web portal to all federal, state and local government web resources and services.